UKV7027 EGJJ-EGSS

Flight info

Callsign UKV7027
Flight time N/A
Altitude 19000
Route ORIST L982 TELTU
Aircraft B738/M-S/C

Departure

Time 2026-05-05 21:03
Airport Jersey Airport (EGJJ)

Arrival

Time N/A
Airport London Stansted Airport (EGSS)
Time Latitude Longitude Altitude Speed Heading
2026-05-05 20:45 49.20487 -2.19847 279 ft 0 kts 352°
2026-05-05 20:53 49.20478 -2.19845 279 ft 2 kts 353°
2026-05-05 20:53 49.20461 -2.19842 286 ft 2 kts 353°
2026-05-05 20:53 49.20445 -2.19839 286 ft 2 kts 354°
2026-05-05 20:54 49.20429 -2.19838 286 ft 2 kts 13°
2026-05-05 20:54 49.20427 -2.19839 286 ft 0 kts 17°
2026-05-05 20:57 49.20458 -2.19845 282 ft 8 kts 335°
2026-05-05 20:57 49.20476 -2.19872 284 ft 3 kts 306°
2026-05-05 20:58 49.20502 -2.19910 279 ft 7 kts 334°
2026-05-05 20:58 49.20566 -2.19926 279 ft 11 kts
2026-05-05 20:58 49.20604 -2.19823 279 ft 12 kts 84°
2026-05-05 20:58 49.20623 -2.19702 281 ft 12 kts 60°
2026-05-05 20:59 49.20680 -2.19605 279 ft 13 kts 63°
2026-05-05 20:59 49.20704 -2.19468 280 ft 14 kts 80°
2026-05-05 20:59 49.20701 -2.19356 280 ft 11 kts 98°
2026-05-05 20:59 49.20689 -2.19228 283 ft 13 kts 104°
2026-05-05 21:00 49.20685 -2.19087 282 ft 13 kts 82°
2026-05-05 21:00 49.20698 -2.18937 282 ft 14 kts 83°
2026-05-05 21:00 49.20711 -2.18782 282 ft 16 kts 80°
2026-05-05 21:00 49.20720 -2.18683 281 ft 10 kts 82°
2026-05-05 21:01 49.20728 -2.18585 281 ft 7 kts 84°
2026-05-05 21:01 49.20734 -2.18496 281 ft 10 kts 84°
2026-05-05 21:01 49.20740 -2.18414 281 ft 4 kts 82°
2026-05-05 21:01 49.20752 -2.18370 284 ft 5 kts 50°
2026-05-05 21:02 49.20788 -2.18325 279 ft 9 kts
2026-05-05 21:02 49.20857 -2.18360 278 ft 12 kts 340°
2026-05-05 21:02 49.20884 -2.18485 278 ft 25 kts 264°
2026-05-05 21:02 49.20823 -2.19219 283 ft 112 kts 262°
2026-05-05 21:03 49.20681 -2.20782 387 ft 174 kts 262°
2026-05-05 21:03 49.20468 -2.22654 1274 ft 190 kts 261°
2026-05-05 21:03 49.20113 -2.24861 1376 ft 236 kts 259°
2026-05-05 21:03 49.19768 -2.27172 8 ft 0 kts 259°